Terminal Aerodrome Forecast
Issued by NWS Milwaukee/Sullivan, WI

Home | Current Version | Previous Version | Text Only | Print | Product List | Glossary On
Versions: 1 2 3 4 5 6 7 8 9 10 11 12 13 14 15 16 17 18 19 20 21 22 23 24 25 26 27 28 29 30 31 32 33 34 35 36 37 38 39 40 41 42 43 44 45 46 47 48 49 50
000
FTUS43 KMKX 302320
TAFMKE
TAF
KMKE 302320Z 3100/0106 15005KT P6SM FEW025
     FM310600 19004KT 5SM BR SKC
     FM311100 23004KT 2SM BR SKC
     FM311400 22005KT 5SM BR SKC
     FM311500 22005KT P6SM SKC
     FM311900 15009KT 6SM HZ SCT250
     FM010100 18004KT P6SM SKC=

USA.gov is the U.S. government's official web portal to all federal, state and local government web resources and services.